[[{"header":{"parameterUnit":"m.s-1","parameterCategory":1,"la1":30.2991,"la2":30.254,"lo1":-89.0895,"lo2":-89.0444,"dy":0.0017,"dx":0.0017,"nx":28,"ny":28,"refTime":"2023-09-18T03:00:00:Z","depth":0,"parameterNumber":2,"parameterNumberName":"U-component_of_WINDS"},"data":[0,0,0,0,0,0,0,0,0,0,0,0,0,0,0,0,0,0,0,0,0,0,0,0,0,0,0,0,0,0,0,0,0,0,0,0,0,0,0,0,0,0,0,0,0,0,0,0,0,0,0,0,0,0,0,0,0,0,-2.5492,-2.5492,0,-2.5533,-2.5534,-2.5534,-2.5405,-2.5401,-2.5397,-2.5393,-2.5437,-2.5442,-2.5447,0,0,0,0,0,0,0,0,0,0,0,0,0,-2.53,-2.5304,-2.5492,-2.5492,-2.5493,-2.5533,-2.5534,-2.5534,-2.5406,-2.5401,-2.5396,-2.5392,-2.5436,-2.5441,-2.5447,0,0,0,0,0,0,0,0,0,0,0,0,0,-2.5367,-2.5305,-2.5492,-2.5433,-2.5428,-2.5533,-2.5534,-2.5535,-2.5407,-2.5401,-2.5395,-2.5389,-2.5434,-2.5441,-2.5448,-2.5611,0,0,-2.547,-2.5473,0,0,0,0,0,0,0,0,-2.5363,-2.5374,-2.5441,-2.5438,-2.5432,-2.5458,-2.5482,-2.556,-2.5408,-2.5415,-2.5393,-2.5386,-2.5449,-2.5455,-2.5475,-2.5613,-2.5615,-2.5471,-2.5475,-2.5478,-2.548,0,0,0,0,0,0,0,-2.5359,-2.5371,-2.5508,-2.5443,-2.5437,-2.5405,-2.5408,-2.5496,-2.5465,-2.5414,-2.5405,-2.5411,-2.5445,-2.5469,-2.5475,-2.5615,-2.547,-2.5477,-2.5481,-2.5484,-2.5888,-2.5894,0,0,0,0,0,0,-2.5361,-2.5368,-2.5507,-2.5509,-2.5382,-2.5413,-2.5416,-2.5456,-2.5463,-2.5459,-2.5416,-2.5405,-2.5459,-2.5467,-2.5476,-2.5668,-2.5478,-2.5485,-2.5489,-2.5881,-2.5889,-2.5896,0,0,0,0,0,0,-2.5358,-2.5375,-2.5505,-2.5436,-2.545,-2.5423,-2.5468,-2.546,-2.5483,-2.5465,-2.5459,-2.5446,-2.5455,-2.5466,-2.5578,-2.5667,-2.5488,-2.5495,-2.5874,-2.5884,-2.5892,-2.6052,0,0,0,0,0,0,-2.5353,-2.5375,-2.5437,-2.5439,-2.5455,-2.5607,-2.5473,-2.5465,-2.5496,-2.5481,-2.5491,-2.5487,-2.5451,-2.5568,-2.5585,-2.5674,-2.55,-2.5866,-2.5878,-2.5889,-2.6038,-2.6065,-2.6089,0,0,0,0,0,-2.5346,-2.548,-2.5441,-2.5458,-2.5532,-2.5612,-2.5621,-2.5577,-2.5503,-2.5565,-2.5553,-2.5487,-2.5654,-2.5581,-2.5599,-2.5691,-2.586,-2.5875,-2.5888,-2.6027,-2.606,-2.6088,0,0,0,0,0,0,-2.549,-2.548,-2.5435,-2.5574,-2.5595,-2.559,-2.5667,-2.5613,-2.5656,-2.5641,-2.5583,-2.5587,-2.5709,-2.5711,-2.5629,-2.5849,-2.5744,-2.5763,-2.5844,-2.5875,-2.59,-2.5897,-2.5506,0,0,0,0,0,-2.5538,-2.5605,-2.5591,-2.5715,-2.5727,-2.5696,-2.5729,-2.5693,-2.5712,-2.5721,-2.5717,-2.5739,-2.5796,-2.5835,-2.5887,-2.6037,-2.6037,-2.6109,-2.6135,-2.6155,-2.6173,-2.6252,-2.6284,-2.5943,-2.5943,-2.5942,0,0,-2.5638,-2.564,-2.5686,-2.5744,-2.5756,-2.5826,-2.5704,-2.5784,-2.5835,-2.5733,-2.5838,-2.5836,-2.5857,-2.5988,-2.6046,-2.5994,-2.6266,-2.6174,-2.619,-2.6196,-2.627,-2.6302,-2.6331,-2.5953,-2.5951,-2.5949,0,0,-2.5855,-2.5863,-2.5967,-2.5981,-2.6,-2.5978,-2.6003,-2.6006,-2.6001,-2.6105,-2.603,-2.609,-2.619,-2.6207,-2.6229,-2.6451,-2.6391,-2.6469,-2.6601,-2.6679,-2.6706,-2.6729,-2.6809,-2.6838,-2.6486,-2.6486,-2.6487,0,-2.5977,-2.6079,-2.6027,-2.6111,-2.6139,-2.6048,-2.6152,-2.6169,-2.6204,-2.6225,-2.6165,-2.6288,-2.6295,-2.643,-2.6484,-2.6504,-2.6531,-2.6469,-2.6706,-2.6729,-2.675,-2.6825,-2.6855,-2.6496,-2.6495,-2.6494,-2.6493,0,-2.6228,-2.63,-2.6381,-2.6417,-2.6453,-2.6547,-2.6509,-2.6552,-2.6511,-2.6495,-2.6603,-2.6608,-2.6658,-2.6687,-2.6649,-2.6816,-2.6783,-2.6716,-2.661,-2.6793,-2.6863,-2.6891,-2.6509,-2.6506,-2.6503,-2.6501,0,0,-2.6539,-2.6543,-2.6574,-2.6589,-2.6603,-2.6657,-2.6746,-2.6795,-2.6834,-2.686,-2.6934,-2.7019,-2.6957,-2.6982,-2.6944,-2.7012,-2.7187,-2.6936,-2.6936,-2.6983,-2.7372,-2.7423,-2.7457,-2.7147,-2.7152,-2.7156,-2.737,0,-2.6753,-2.6906,-2.6861,-2.7015,-2.708,-2.6994,-2.7072,-2.7088,-2.7075,-2.7129,-2.7113,-2.7175,-2.7088,-2.7102,-2.7165,-2.7153,-2.7265,-2.7137,-2.7215,-2.7219,-2.7214,-2.7494,-2.7549,-2.775,-2.7397,-2.7401,-2.7405,0,-2.7025,-2.7062,-2.7222,-2.7223,-2.7249,-2.732,-2.736,-2.7412,-2.7429,-2.7414,-2.7442,-2.739,-2.7476,-2.7369,-2.7488,-2.7402,-2.7431,-2.7429,-2.7436,-2.7443,-2.7324,-2.7509,-2.7813,-2.7844,-2.7447,-2.7444,-2.7441,0,-2.7237,-2.7326,-2.7433,-2.7449,-2.7453,-2.7505,-2.7509,-2.7519,-2.7551,-2.7586,-2.7606,-2.7651,-2.7677,-2.7712,-2.7674,-2.7599,-2.7799,-2.7688,-2.7789,-2.779,-2.7837,-2.7835,-2.8151,-2.7854,-2.7853,-2.7853,-2.7852,0,-2.7482,-2.7584,-2.7529,-2.7595,-2.7706,-2.7652,-2.7763,-2.7757,-2.7767,-2.783,-2.7758,-2.7819,-2.7763,-2.7819,-2.7788,-2.7891,-2.7903,-2.7894,-2.7885,-2.7901,-2.7903,-2.7921,-2.7906,-2.7861,-2.7859,-2.7857,-2.7856,0,-2.7738,-2.7706,-2.7817,-2.7811,-2.7812,-2.7894,-2.7889,-2.795,-2.793,-2.8011,-2.8027,-2.7997,-2.8058,-2.8022,-2.8085,-2.8065,-2.8199,-2.817,-2.8194,-2.8187,-2.829,-2.8281,-2.863,-2.8673,-2.8348,-2.8351,-2.8353,0,-2.7898,-2.7974,-2.7976,-2.8013,-2.8021,-2.8082,-2.8114,-2.8063,-2.8099,-2.8122,-2.818,-2.8235,-2.8277,-2.8379,-2.8363,-2.841,-2.8383,-2.8502,-2.839,-2.8403,-2.8385,-2.8382,-2.8389,-2.8525,-2.8529,-2.8532,-2.8534,0,-2.8184,-2.8164,-2.8212,-2.8255,-2.8295,-2.8327,-2.8352,-2.8386,-2.8335,-2.8379,-2.8441,-2.8473,-2.8537,-2.8593,-2.8632,-2.8636,-2.8578,-2.8569,-2.8595,-2.8614,-2.8624,-2.8621,-2.8257,-2.8562,-2.8559,-2.8557,-2.8556,-2.8555,-2.8397,-2.846,-2.8471,-2.8528,-2.8541,-2.8566,-2.8623,-2.861,-2.866,-2.8708,-2.8674,-2.8747,-2.876,-2.8807,-2.8818,-2.8874,-2.8826,-2.8864,-2.8874,-2.8884,-2.8899,-2.8614,-2.8881,-2.8881,-2.888,-2.8879,-2.8878,0,-2.868,-2.8682,-2.8735,-2.8772,-2.8816,-2.8755,-2.878,-2.8821,-2.8886,-2.8903,-2.8945,-2.9015,-2.9068,-2.9055,-2.9103,-2.915,-2.9124,-2.9164,-2.9161,-2.9163,-2.8939,-2.8912,-2.9184,-2.9184,-2.9184,-2.9184,-2.9184,-2.9184,-2.8833,-2.8937,-2.8917,-2.9026,-2.9027,-2.9098,-2.9117,-2.914,-2.9153,-2.9235,-2.9278,-2.9269,-2.9273,-2.932,-2.9366,-2.9361,-2.9382,-2.9432,-2.9418,-2.9209,-2.9179,-2.915,-2.9124,-2.9437,-2.9438,-2.9637,-2.9639,-2.964]},{"header":{"parameterUnit":"m.s-1","parameterCategory":1,"la1":30.2991,"la2":30.254,"lo1":-89.0895,"lo2":-89.0444,"dy":0.0017,"dx":0.0017,"nx":28,"ny":28,"refTime":"2023-09-18T03:00:00:Z","depth":0,"parameterNumber":3,"parameterNumberName":"V-component_of_WINDS"},"data":[0,0,0,0,0,0,0,0,0,0,0,0,0,0,0,0,0,0,0,0,0,0,0,0,0,0,0,0,0,0,0,0,0,0,0,0,0,0,0,0,0,0,0,0,0,0,0,0,0,0,0,0,0,0,0,0,0,0,-2.6846,-2.6846,0,-2.6896,-2.6897,-2.6897,-2.6881,-2.688,-2.6879,-2.6878,-2.6927,-2.6929,-2.6931,0,0,0,0,0,0,0,0,0,0,0,0,0,-2.673,-2.6733,-2.6846,-2.6846,-2.6847,-2.6896,-2.6897,-2.6898,-2.6881,-2.688,-2.6879,-2.6878,-2.6926,-2.6929,-2.6931,0,0,0,0,0,0,0,0,0,0,0,0,0,-2.6781,-2.6733,-2.6846,-2.6845,-2.6845,-2.6896,-2.6897,-2.6898,-2.6882,-2.688,-2.6878,-2.6877,-2.6925,-2.6928,-2.6932,-2.6985,0,0,-2.6942,-2.6944,0,0,0,0,0,0,0,0,-2.6778,-2.6785,-2.6844,-2.6845,-2.6846,-2.6881,-2.6874,-2.6927,-2.6882,-2.6868,-2.6878,-2.6876,-2.6912,-2.6917,-2.693,-2.6987,-2.6989,-2.6942,-2.6945,-2.6946,-2.6947,0,0,0,0,0,0,0,-2.6774,-2.6783,-2.6866,-2.6845,-2.6846,-2.6841,-2.6846,-2.6884,-2.6898,-2.6869,-2.6868,-2.6874,-2.6912,-2.6926,-2.6931,-2.699,-2.6942,-2.6945,-2.6948,-2.6949,-2.7092,-2.7093,0,0,0,0,0,0,-2.6771,-2.678,-2.6864,-2.6867,-2.6807,-2.6844,-2.685,-2.6871,-2.6898,-2.6901,-2.6876,-2.6873,-2.6921,-2.6927,-2.6932,-2.6995,-2.6946,-2.6949,-2.6951,-2.709,-2.7092,-2.7094,0,0,0,0,0,0,-2.6769,-2.6779,-2.6862,-2.6823,-2.6833,-2.6848,-2.6872,-2.6873,-2.6887,-2.6903,-2.6905,-2.6888,-2.692,-2.6928,-2.6972,-2.6997,-2.6951,-2.6954,-2.7088,-2.7091,-2.7093,-2.7122,0,0,0,0,0,0,-2.6765,-2.6778,-2.68,-2.6824,-2.6836,-2.6902,-2.6873,-2.6875,-2.6893,-2.6891,-2.6915,-2.6917,-2.692,-2.6967,-2.6975,-2.7001,-2.6957,-2.7086,-2.7089,-2.7092,-2.7119,-2.7126,-2.7131,0,0,0,0,0,-2.6761,-2.6806,-2.6801,-2.6811,-2.6863,-2.6904,-2.691,-2.6913,-2.6896,-2.6916,-2.6926,-2.6916,-2.6993,-2.6972,-2.6981,-2.7008,-2.7084,-2.7088,-2.7092,-2.7117,-2.7124,-2.7131,0,0,0,0,0,0,-2.6783,-2.6809,-2.6804,-2.6857,-2.6879,-2.6901,-2.6927,-2.6921,-2.6947,-2.6943,-2.6945,-2.695,-2.6995,-2.7006,-2.6982,-2.706,-2.7036,-2.7042,-2.7051,-2.7059,-2.7065,-2.7061,-2.6959,0,0,0,0,0,-2.6794,-2.6826,-2.6846,-2.6892,-2.6903,-2.6913,-2.6931,-2.6931,-2.6953,-2.6961,-2.6975,-2.6995,-2.7023,-2.7042,-2.7069,-2.7121,-2.7125,-2.7144,-2.715,-2.7154,-2.7159,-2.7186,-2.7194,-2.7107,-2.7107,-2.7107,0,0,-2.6817,-2.6835,-2.6855,-2.6896,-2.6913,-2.6944,-2.6921,-2.6955,-2.6978,-2.6966,-2.7009,-2.7019,-2.7041,-2.7089,-2.7111,-2.71,-2.7184,-2.7159,-2.7163,-2.7165,-2.7191,-2.7199,-2.7206,-2.711,-2.7109,-2.7109,0,0,-2.6875,-2.6893,-2.6931,-2.6948,-2.6974,-2.698,-2.699,-2.7013,-2.7019,-2.7062,-2.7053,-2.708,-2.7129,-2.7145,-2.7159,-2.7222,-2.7213,-2.723,-2.7261,-2.7287,-2.7294,-2.73,-2.732,-2.7328,-2.7235,-2.7235,-2.7235,0,-2.69,-2.6949,-2.6952,-2.6987,-2.7005,-2.6996,-2.7034,-2.705,-2.7082,-2.7094,-2.7081,-2.7141,-2.7156,-2.7207,-2.7222,-2.7234,-2.7243,-2.7227,-2.7293,-2.7299,-2.7304,-2.7324,-2.7332,-2.7237,-2.7237,-2.7237,-2.7237,0,-2.6977,-2.7011,-2.7039,-2.7071,-2.7092,-2.7128,-2.7135,-2.7156,-2.7154,-2.7161,-2.7204,-2.7221,-2.7251,-2.7263,-2.7262,-2.7313,-2.7305,-2.7292,-2.7268,-2.7315,-2.7333,-2.7341,-2.724,-2.7239,-2.7239,-2.7238,0,0,-2.705,-2.7083,-2.7093,-2.7107,-2.7134,-2.7159,-2.7194,-2.7224,-2.7241,-2.7263,-2.7291,-2.7333,-2.7321,-2.7337,-2.7337,-2.736,-2.7406,-2.7344,-2.7345,-2.7354,-2.7462,-2.747,-2.7479,-2.7401,-2.7402,-2.7403,-2.7459,0,-2.7109,-2.7172,-2.7176,-2.7232,-2.7262,-2.7254,-2.7284,-2.7303,-2.731,-2.7336,-2.7343,-2.7372,-2.7355,-2.7365,-2.7387,-2.7396,-2.7428,-2.7392,-2.7425,-2.7427,-2.7419,-2.7489,-2.7498,-2.755,-2.7467,-2.7468,-2.7469,0,-2.7187,-2.7212,-2.7272,-2.7293,-2.7305,-2.7333,-2.7359,-2.7384,-2.7404,-2.7408,-2.7426,-2.7422,-2.7457,-2.7432,-2.7478,-2.7454,-2.7467,-2.7473,-2.7475,-2.7478,-2.745,-2.7492,-2.7567,-2.7575,-2.7481,-2.748,-2.7479,0,-2.7232,-2.7281,-2.7322,-2.7335,-2.7361,-2.738,-2.7391,-2.741,-2.7427,-2.745,-2.7461,-2.7487,-2.7501,-2.7521,-2.7524,-2.7506,-2.7569,-2.7545,-2.7572,-2.7572,-2.7585,-2.7584,-2.7662,-2.7596,-2.7596,-2.7596,-2.7595,0,-2.7297,-2.7333,-2.7343,-2.7368,-2.7408,-2.7411,-2.745,-2.746,-2.7477,-2.7503,-2.7497,-2.7521,-2.7524,-2.7548,-2.7551,-2.7587,-2.7594,-2.7597,-2.7597,-2.7597,-2.7596,-2.7605,-2.7601,-2.7598,-2.7597,-2.7597,-2.7596,0,-2.7354,-2.7362,-2.7407,-2.7428,-2.7434,-2.7462,-2.7479,-2.7502,-2.7509,-2.7542,-2.755,-2.756,-2.7588,-2.7593,-2.7627,-2.7628,-2.7671,-2.7668,-2.7665,-2.7664,-2.769,-2.7687,-2.7776,-2.7787,-2.7714,-2.7715,-2.7716,0,-2.7394,-2.7422,-2.7446,-2.7463,-2.7476,-2.7504,-2.7521,-2.7525,-2.7543,-2.7567,-2.7587,-2.7615,-2.7638,-2.7683,-2.7693,-2.7718,-2.7714,-2.7744,-2.7718,-2.7716,-2.7713,-2.7711,-2.7712,-2.7748,-2.7749,-2.775,-2.775,0,-2.7464,-2.7467,-2.7493,-2.752,-2.7541,-2.7562,-2.7582,-2.7597,-2.7602,-2.7622,-2.7652,-2.7669,-2.7703,-2.773,-2.7755,-2.7765,-2.7758,-2.7758,-2.7765,-2.7765,-2.7761,-2.7762,-2.7677,-2.7756,-2.7755,-2.7755,-2.7755,-2.7754,-2.7513,-2.7537,-2.7557,-2.7586,-2.7601,-2.762,-2.7643,-2.7652,-2.7677,-2.7706,-2.7706,-2.7737,-2.7755,-2.7787,-2.7799,-2.7823,-2.7813,-2.7824,-2.7826,-2.7829,-2.783,-2.7759,-2.7827,-2.7827,-2.7827,-2.7827,-2.7827,0,-2.7582,-2.7594,-2.7621,-2.7649,-2.7671,-2.7664,-2.7685,-2.7703,-2.7732,-2.7749,-2.7772,-2.7804,-2.783,-2.7841,-2.7866,-2.7883,-2.788,-2.7889,-2.7888,-2.789,-2.7838,-2.7829,-2.7891,-2.7891,-2.7891,-2.7891,-2.7891,-2.7891,-2.762,-2.7659,-2.7664,-2.771,-2.7722,-2.7753,-2.7766,-2.7782,-2.7796,-2.7833,-2.7855,-2.7863,-2.7877,-2.7903,-2.7926,-2.7928,-2.7937,-2.7947,-2.7948,-2.79,-2.7893,-2.7887,-2.7878,-2.795,-2.795,-2.7997,-2.7998,-2.7998]}]]